• In Spain
  • List of Countries
  • For 7 days
  • Water Temperature
  • Satellite Maps
  • Weather Map
  • Weather Widgets
  • user-avatar
    Login

    Hourly Weather Konoplevo

    Today, 24 September, Monday

    Time Temperature Precipitation Wind Pressure Humidity
    00:00 +7°C° 0 mm 3 mps 739 mmHg 92%
    01:00 +7°C° 0 mm 3 mps 739 mmHg 93%
    02:00 +6°C° 0 mm 2 mps 739 mmHg 96%
    03:00 +6°C° 0 mm 2 mps 739 mmHg 97%
    04:00 +6°C° 0 mm 2 mps 739 mmHg 97%
    05:00 +5°C° 0 mm 2 mps 739 mmHg 97%
    06:00 +6°C° 0 mm 2 mps 739 mmHg 94%
    07:00 +7°C° 0 mm 2 mps 739 mmHg 90%
    08:00 +8°C° 0 mm 3 mps 739 mmHg 86%
    09:00 +9°C° 0 mm 3 mps 739 mmHg 79%
    10:00 +11°C° 0 mm 3 mps 739 mmHg 73%
    11:00 +12°C° 0 mm 3 mps 738 mmHg 67%
    12:00 +11°C° 0.4 mm 3 mps 738 mmHg 73%
    13:00 +11°C° 0.4 mm 3 mps 738 mmHg 78%
    14:00 +10°C° 0.4 mm 3 mps 737 mmHg 84%
    15:00 +9°C° 0.8 mm 3 mps 737 mmHg 87%
    16:00 +9°C° 0.8 mm 3 mps 736 mmHg 90%
    17:00 +8°C° 0.8 mm 3 mps 735 mmHg 93%
    18:00 +8°C° 1.1 mm 3 mps 734 mmHg 93%
    19:00 +7°C° 1.1 mm 4 mps 734 mmHg 93%
    20:00 +6°C° 1.1 mm 4 mps 733 mmHg 93%
    21:00 +6°C° 2 mm 4 mps 732 mmHg 93%
    22:00 +6°C° 2 mm 4 mps 731 mmHg 94%
    23:00 +6°C° 2 mm 4 mps 730 mmHg 94%

    Tomorrow, 25 September, Tuesday

    Time Temperature Precipitation Wind Pressure Humidity
    00:00 +6°C° 2 mm 4 mps 730 mmHg 94%
    01:00 +6°C° 2 mm 4 mps 729 mmHg 95%
    02:00 +6°C° 2 mm 4 mps 729 mmHg 95%
    03:00 +6°C° 1.5 mm 4 mps 729 mmHg 94%
    04:00 +6°C° 1.5 mm 5 mps 729 mmHg 94%
    05:00 +6°C° 1.5 mm 5 mps 729 mmHg 94%
    06:00 +6°C° 0.8 mm 5 mps 729 mmHg 93%
    07:00 +5°C° 0.8 mm 6 mps 730 mmHg 91%
    08:00 +5°C° 0.8 mm 6 mps 731 mmHg 90%
    09:00 +5°C° 0.6 mm 7 mps 732 mmHg 89%
    10:00 +5°C° 0.6 mm 7 mps 732 mmHg 88%
    11:00 +5°C° 0.6 mm 7 mps 733 mmHg 87%
    12:00 +5°C° 0.5 mm 7 mps 734 mmHg 85%
    13:00 +5°C° 0.5 mm 7 mps 735 mmHg 83%
    14:00 +5°C° 0.5 mm 7 mps 736 mmHg 82%
    15:00 +5°C° 0.2 mm 7 mps 737 mmHg 81%
    16:00 +5°C° 0.2 mm 6 mps 738 mmHg 81%
    17:00 +5°C° 0.2 mm 6 mps 738 mmHg 81%
    18:00 +4°C° 0 mm 6 mps 739 mmHg 80%
    19:00 +4°C° 0 mm 6 mps 740 mmHg 80%
    20:00 +3°C° 0 mm 6 mps 741 mmHg 80%
    21:00 +3°C° 0 mm 6 mps 742 mmHg 78%
    22:00 +2°C° 0 mm 5 mps 743 mmHg 77%
    23:00 +2°C° 0 mm 5 mps 744 mmHg 76%

    Day after tomorrow, 26 September, Wednesday

    Time Temperature Precipitation Wind Pressure Humidity
    00:00 +1°C° 0 mm 5 mps 745 mmHg 75%
    01:00 +1°C° 0 mm 5 mps 745 mmHg 75%
    02:00 0°C° 0 mm 4 mps 746 mmHg 74%
    03:00 0°C° 0 mm 4 mps 747 mmHg 75%
    04:00 -1°C° 0 mm 4 mps 747 mmHg 76%
    05:00 0°C° 0 mm 3 mps 747 mmHg 78%
    06:00 +1°C° 0 mm 3 mps 748 mmHg 75%
    07:00 +2°C° 0 mm 3 mps 748 mmHg 72%
    08:00 +3°C° 0 mm 3 mps 749 mmHg 69%
    09:00 +5°C° 0 mm 4 mps 749 mmHg 66%
    10:00 +6°C° 0 mm 4 mps 748 mmHg 63%
    11:00 +8°C° 0 mm 4 mps 748 mmHg 60%
    12:00 +10°C° 0 mm 4 mps 748 mmHg 60%
    13:00 +10°C° 0 mm 4 mps 747 mmHg 60%
    14:00 +10°C° 0 mm 5 mps 747 mmHg 59%
    15:00 +9°C° 0 mm 5 mps 746 mmHg 61%
    16:00 +8°C° 0 mm 5 mps 745 mmHg 64%
    17:00 +8°C° 0 mm 4 mps 744 mmHg 66%
    18:00 +7°C° 0.4 mm 5 mps 743 mmHg 71%
    19:00 +7°C° 0.4 mm 6 mps 742 mmHg 76%
    20:00 +5°C° 0.4 mm 6 mps 741 mmHg 81%
    21:00 +5°C° 1.6 mm 7 mps 740 mmHg 84%
    22:00 +5°C° 1.6 mm 7 mps 738 mmHg 86%
    23:00 +5°C° 1.6 mm 7 mps 737 mmHg 89%

    27 September, Thursday

    Time Temperature Precipitation Wind Pressure Humidity
    00:00 +5°C° 1.3 mm 7 mps 736 mmHg 89%
    01:00 +5°C° 1.3 mm 6 mps 735 mmHg 90%
    02:00 +7°C° 1.3 mm 6 mps 735 mmHg 90%
    03:00 +6°C° 0.3 mm 5 mps 735 mmHg 90%
    04:00 +6°C° 0.3 mm 4 mps 735 mmHg 89%
    05:00 +6°C° 0.3 mm 4 mps 735 mmHg 88%
    06:00 +6°C° 0 mm 4 mps 735 mmHg 85%
    07:00 +6°C° 0 mm 5 mps 735 mmHg 83%
    08:00 +6°C° 0 mm 5 mps 735 mmHg 80%
    09:00 +7°C° 0.1 mm 6 mps 735 mmHg 75%
    10:00 +8°C° 0.1 mm 6 mps 736 mmHg 69%
    11:00 +9°C° 0.1 mm 6 mps 736 mmHg 64%
    12:00 +9°C° 0.1 mm 6 mps 736 mmHg 62%
    13:00 +9°C° 0.1 mm 6 mps 736 mmHg 60%
    14:00 +9°C° 0.1 mm 6 mps 736 mmHg 58%
    15:00 +8°C° 0 mm 5 mps 736 mmHg 63%
    16:00 +8°C° 0 mm 4 mps 736 mmHg 67%
    17:00 +8°C° 0 mm 3 mps 736 mmHg 71%
    18:00 +7°C° 0 mm 3 mps 737 mmHg 74%
    19:00 +7°C° 0 mm 3 mps 737 mmHg 76%
    20:00 +5°C° 0 mm 3 mps 737 mmHg 78%
    21:00 +5°C° 0 mm 3 mps 737 mmHg 79%
    22:00 +5°C° 0 mm 3 mps 737 mmHg 80%
    23:00 +5°C° 0 mm 3 mps 737 mmHg 81%

    28 September, Friday

    Time Temperature Precipitation Wind Pressure Humidity
    00:00 +5°C° 0 mm 3 mps 737 mmHg 82%
    01:00 +5°C° 0 mm 3 mps 737 mmHg 84%
    02:00 +5°C° 0 mm 3 mps 737 mmHg 85%
    03:00 +5°C° 0.5 mm 3 mps 737 mmHg 88%
    04:00 +5°C° 0.5 mm 3 mps 736 mmHg 91%
    05:00 +5°C° 0.5 mm 3 mps 736 mmHg 94%
    06:00 +6°C° 0.6 mm 2 mps 736 mmHg 94%
    07:00 +6°C° 0.6 mm 2 mps 735 mmHg 93%
    08:00 +6°C° 0.6 mm 2 mps 735 mmHg 92%
    09:00 +7°C° 0.1 mm 3 mps 736 mmHg 89%
    10:00 +7°C° 0.1 mm 3 mps 736 mmHg 86%
    11:00 +6°C° 0.1 mm 4 mps 736 mmHg 83%
    12:00 +6°C° 0 mm 4 mps 737 mmHg 78%
    13:00 +7°C° 0 mm 4 mps 737 mmHg 74%
    14:00 +7°C° 0 mm 4 mps 738 mmHg 69%
    15:00 +7°C° 0 mm 4 mps 738 mmHg 71%
    16:00 +7°C° 0 mm 3 mps 739 mmHg 73%
    17:00 +5°C° 0 mm 3 mps 739 mmHg 74%
    18:00 +5°C° 0 mm 2 mps 740 mmHg 77%
    19:00 +4°C° 0 mm 2 mps 741 mmHg 80%
    20:00 +3°C° 0 mm 2 mps 741 mmHg 83%
    21:00 +2°C° 0 mm 2 mps 742 mmHg 82%
    22:00 +2°C° 0 mm 2 mps 742 mmHg 82%
    23:00 +2°C° 0 mm 2 mps 743 mmHg 82%

    29 September, Saturday

    Time Temperature Precipitation Wind Pressure Humidity
    00:00 +2°C° 0 mm 2 mps 743 mmHg 81%
    01:00 +2°C° 0 mm 2 mps 743 mmHg 81%
    02:00 +1°C° 0 mm 2 mps 744 mmHg 80%
    03:00 +2°C° 0 mm 1 mps 744 mmHg 80%
    04:00 +2°C° 0 mm 1 mps 745 mmHg 81%
    05:00 +2°C° 0 mm 1 mps 745 mmHg 81%
    06:00 +3°C° 0 mm 1 mps 745 mmHg 78%
    07:00 +4°C° 0 mm 1 mps 746 mmHg 75%
    08:00 +5°C° 0 mm 1 mps 746 mmHg 72%
    09:00 +6°C° 0 mm 1 mps 746 mmHg 66%
    10:00 +7°C° 0 mm 1 mps 747 mmHg 60%
    11:00 +8°C° 0 mm 1 mps 747 mmHg 54%
    12:00 +9°C° 0 mm 1 mps 747 mmHg 53%
    13:00 +9°C° 0 mm 1 mps 747 mmHg 51%
    14:00 +9°C° 0 mm 1 mps 748 mmHg 49%
    15:00 +8°C° 0 mm 1 mps 748 mmHg 55%
    16:00 +7°C° 0 mm 1 mps 748 mmHg 60%
    17:00 +6°C° 0 mm 1 mps 748 mmHg 66%
    18:00 +5°C° 0 mm 1 mps 748 mmHg 70%
    19:00 +4°C° 0 mm 1 mps 749 mmHg 74%
    20:00 +3°C° 0 mm 1 mps 749 mmHg 78%
    21:00 +2°C° 0 mm 2 mps 749 mmHg 81%
    22:00 +2°C° 0 mm 2 mps 749 mmHg 83%
    23:00 +1°C° 0 mm 2 mps 749 mmHg 86%
    Show more